{"data":{"norad_id":66112,"epoch":"2026-09-20T07:24:18.059904Z","epoch_age_seconds":116927,"freshness":"FRESH","line1":"1 66112U 25236AC  26263.30854236  .00022426  00000+0  67302-3 0  9990","line2":"2 66112  53.1578 278.3238 0001264  77.4127 282.7017 15.34393227 52767","mean_motion":15.34393227,"eccentricity":0.0001264,"inclination_deg":53.1578,"raan_deg":278.3238,"arg_perigee_deg":77.4127,"mean_anomaly_deg":282.7017,"bstar":0.00067302,"rev_number":5276,"period_min":93.848172336856,"perigee_km":461.8586863136,"apogee_km":463.5880558154,"semimajor_km":6840.8603710645,"source":"CELESTRAK","updated_at":"2026-09-21T09:00:35.805741Z"}}